Regional Weather Roundup
Issued by NWS

Home | Current Version | Previous Version | Text Only | Print | Product List | Glossary On
Versions: 1 2 3 4 5 6 7 8 9 10 11 12 13 14 15 16 17 18 19 20 21 22 23 24 25 26 27 28 29 30 31 32 33 34 35 36 37 38 39 40 41 42 43 44 45 46 47 48 49 50
000
ASUS46 KPQR 300710
RWROR

OREGON REGIONAL WEATHER ROUNDUP
NATIONAL WEATHER SERVICE PORTLAND OR
1200 AM PDT SAT JUL 30 2016

NOTE: "FAIR" INDICATES FEW OR NO CLOUDS BELOW 12,000 FEET WITH
NO SIGNIFICANT WEATHER AND/OR OBSTRUCTIONS TO VISIBILITY.

ORZ001>013-300800-
NORTHWEST OREGON


CITY           SKY/WX    TMP DP  RH WIND       PRES   REMARKS
ASTORIA        CLOUDY    58  54  86 SW6       30.01S
NEWPORT        CLOUDY    57  54  88 N13G21    30.03S
PORTLAND       CLEAR     67  55  65 NW15G22   29.93R
VANCOUVER WA   CLEAR     66  55  67 NW8       29.92R
SCAPPOOSE      CLEAR     64  53  67 N9        29.92R
HILLSBORO      CLEAR     66  53  63 W15       29.92R
AURORA         CLEAR     68  51  54 N7        29.93R
MCMINNVILLE    CLEAR     62  54  74 SW7       29.93R
SALEM          CLEAR     69  52  54 NW5       29.91S
CORVALLIS        N/A     63  52  67 NW15      29.93R
EUGENE         CLEAR     67  54  63 CALM      29.92R
$$

ORZ021-028-300800-
SOUTHWEST OREGON


CITY           SKY/WX    TMP DP  RH WIND       PRES   REMARKS
NORTH BEND     CLOUDY    61  55  82 N18G25    30.00S
BROOKINGS      CLEAR     57  54  89 CALM        N/A
ROSEBURG       CLEAR     76  51  41 CALM      29.90R
SEXTON SUMMIT  CLEAR     66  53  63 N9G23     30.02F
MEDFORD        CLEAR     79  47  32 CALM      29.88R
$$

ORZ014>016-041-300800-
COLUMBIA GORGE


CITY           SKY/WX    TMP DP  RH WIND       PRES   REMARKS
TROUTDALE      CLEAR     68  55  63 W5        29.92R
THE DALLES     CLEAR     80  56  43 NW6       29.76S
$$

ORZ029>031-041-044-049-050-061>064-502-503-505>511-300800-
EASTERN OREGON


CITY           SKY/WX    TMP DP  RH WIND       PRES   REMARKS
REDMOND        CLEAR     66  38  35 CALM      29.96S
BEND           CLEAR     68  45  42 CALM      29.98S
PRINEVILLE     CLEAR     61  43  51 S5        29.97S
KLAMATH FALLS  CLEAR     72  56  57 W6        30.01S
LAKEVIEW       CLEAR    N/A N/A N/A N9        30.04S
HERMISTON      CLEAR     83  56  39 SW16G25   29.71R
PENDLETON      CLEAR     81  50  33 SW9       29.78R
JOHN DAY       CLEAR     78  44  30 W6        29.94S
MEACHAM        CLEAR     58  45  62 CALM      29.95S
LA GRANDE      CLEAR     68  43  40 CALM      29.86S
BAKER CITY     CLEAR     63  49  60 S5        29.91S
BURNS          CLEAR     68  35  29 W7        29.97R
ROME             N/A     77  34  21 S5        29.91R
ONTARIO        CLEAR     75  54  47 SW5       29.79S
$$



USA.gov is the U.S. government's official web portal to all federal, state and local government web resources and services.